TimeMST,TemperatureF,Dew PointF,Humidity,Sea Level PressureIn,VisibilityMPH,Wind Direction,Wind SpeedMPH,Gust SpeedMPH,PrecipitationIn,Events,Conditions,WindDirDegrees,DateUTC
12:56 AM,26.1,15.1,63,29.86,-9999.0,West,26.5,-,N/A,,Clear,270,2012-12-10 07:56:00
1:56 AM,25.0,14.0,63,29.88,-9999.0,West,25.3,32.2,N/A,,Clear,280,2012-12-10 08:56:00
2:56 AM,26.1,16.0,66,29.89,-9999.0,West,24.2,28.8,N/A,,Clear,260,2012-12-10 09:56:00
3:56 AM,28.0,17.1,63,29.88,-9999.0,West,26.5,33.4,N/A,,Overcast,270,2012-12-10 10:56:00
4:56 AM,26.1,16.0,66,29.93,-9999.0,West,20.7,-,N/A,,Overcast,270,2012-12-10 11:56:00
5:56 AM,25.0,16.0,69,29.95,-9999.0,West,12.7,-,N/A,,Mostly Cloudy,280,2012-12-10 12:56:00
6:56 AM,17.1,10.9,77,29.99,-9999.0,WNW,9.2,-,N/A,,Partly Cloudy,290,2012-12-10 13:56:00
7:56 AM,23.0,15.1,72,29.97,-9999.0,West,15.0,-,N/A,,Partly Cloudy,270,2012-12-10 14:56:00
8:56 AM,25.0,15.1,66,29.99,-9999.0,West,13.8,-,N/A,,Clear,280,2012-12-10 15:56:00
9:56 AM,28.9,18.0,64,29.97,-9999.0,West,24.2,32.2,N/A,,Scattered Clouds,260,2012-12-10 16:56:00
10:56 AM,30.9,19.0,61,29.97,-9999.0,West,26.5,32.2,N/A,,Clear,260,2012-12-10 17:56:00
11:56 AM,33.1,19.9,59,29.96,10.0,WSW,25.3,-,N/A,,Clear,250,2012-12-10 18:56:00
12:56 PM,35.1,17.1,48,29.94,10.0,West,26.5,-,N/A,,Clear,270,2012-12-10 19:56:00
1:56 PM,34.0,18.0,52,29.93,10.0,West,28.8,34.5,N/A,,Clear,270,2012-12-10 20:56:00
2:56 PM,33.1,17.1,52,29.93,10.0,West,24.2,32.2,N/A,,Clear,270,2012-12-10 21:56:00
3:56 PM,30.0,18.0,61,29.95,10.0,West,19.6,-,N/A,,Clear,260,2012-12-10 22:56:00
4:56 PM,27.0,17.1,66,29.96,10.0,West,19.6,-,N/A,,Clear,260,2012-12-10 23:56:00
5:56 PM,26.1,16.0,66,29.97,10.0,West,18.4,-,N/A,,Clear,260,2012-12-11 00:56:00
6:56 PM,26.1,17.1,69,29.98,10.0,West,17.3,-,N/A,,Clear,270,2012-12-11 01:56:00
7:56 PM,25.0,17.1,72,29.96,10.0,West,16.1,-,N/A,,Clear,260,2012-12-11 02:56:00
8:56 PM,27.0,19.0,72,29.94,10.0,WSW,21.9,-,N/A,,Clear,250,2012-12-11 03:56:00
9:56 PM,28.0,19.9,72,29.90,10.0,West,23.0,-,N/A,,Clear,260,2012-12-11 04:56:00
10:56 PM,28.9,19.9,69,29.87,10.0,WSW,23.0,-,N/A,,Clear,250,2012-12-11 05:56:00
11:56 PM,30.0,19.9,66,29.83,10.0,WSW,23.0,-,N/A,,Clear,250,2012-12-11 06:56:00